Theta_e
350 349 350 352 350 350 350 351 348 348 346 349 349 346 345 347 346 343 337 335 336 334 339 339 340 341 343 345 344 344 343 343 345 344 343 345 343 343 340 344 337 330 332
351 350 350 350 351 349 350 346 351 349 348 345 344 346 345 346 346 346 345 336 336 337 336 334 339 340 340 341 341 341 341 343 344 346 345 344 343 343 343 338 342 343 342
351 351 352 351 351 352 350 348 348 349 350 347 347 346 346 346 346 348 343 345 345 339 339 335 338 339 337 338 339 341 340 341 343 344 344 344 344 344 343 343 339 339 342
353 349 353 350 351 350 352 350 351 351 350 350 349 350 351 350 348 349 348 345 346 346 340 338 336 339 337 337 336 338 339 339 343 343 343 344 343 344 343 342 342 341 341
350 349 348 351 352 352 351 353 352 352 352 352 350 349 348 350 350 348 350 350 348 347 345 340 336 336 336 337 336 339 347 340 341 342 342 343 342 341 342 343 342 342 342
352 353 353 348 352 352 352 353 352 353 352 350 352 353 352 353 352 349 345 348 349 348 348 345 341 339 338 340 336 341 339 343 340 341 341 340 342 342 341 342 341 342 342
355 354 353 354 354 353 353 354 355 353 353 355 354 354 351 353 354 353 351 347 350 349 349 347 346 343 343 341 338 337 338 340 341 336 338 341 339 341 342 341 341 341 341
355 355 355 355 356 355 355 355 353 354 354 353 355 354 350 350 354 354 353 352 347 351 351 349 348 346 344 345 344 340 340 342 340 338 337 336 337 338 339 342 342 341 341
356 356 357 358 353 356 355 356 356 354 355 352 353 353 347 348 349 351 352 352 347 349 351 351 348 347 347 346 346 344 340 340 339 340 345 342 337 335 337 336 341 342 342
357 357 353 353 354 354 353 356 357 354 355 356 354 353 353 353 350 346 350 352 350 351 351 351 350 349 348 347 347 347 344 341 340 340 344 342 344 338 339 337 337 340 343
358 355 357 357 358 357 357 355 355 357 355 356 357 356 356 355 353 347 349 346 348 351 351 350 351 350 350 348 349 348 347 344 343 343 342 344 343 345 344 337 338 337 340
356 357 358 357 359 358 358 358 359 358 358 358 358 357 356 356 354 350 345 346 347 346 347 349 350 351 350 350 344 345 347 347 347 345 345 343 344 342 345 347 339 338 337
356 356 355 356 356 357 357 359 359 357 357 357 357 356 356 356 356 353 351 348 348 348 347 348 348 350 351 350 347 345 349 349 349 348 348 346 344 344 342 344 346 345 345
355 359 357 355 355 357 359 360 361 361 361 360 360 359 356 358 359 355 351 346 344 346 344 347 346 345 347 351 349 350 351 351 351 349 350 350 347 344 343 342 346 345 343
358 356 356 357 359 360 361 360 361 363 362 361 361 359 359 354 354 353 349 343 346 345 346 344 347 346 342 344 337 344 350 351 352 353 351 351 350 347 344 342 340 341 344
359 357 360 360 358 357 357 362 365 362 360 354 346 356 356 356 355 353 349 343 344 346 346 349 349 346 341 339 341 340 347 351 350 353 352 352 350 349 348 345 343 342 340
359 358 358 359 360 357 356 363 363 362 355 337 337 346 356 355 355 350 353 350 350 349 347 347 348 348 349 347 342 339 349 349 351 351 351 351 349 348 348 347 345 343 343
359 360 359 363 360 358 362 363 362 361 358 346 339 338 344 354 354 353 346 347 346 345 349 348 350 350 352 352 350 344 345 346 351 347 349 351 352 350 348 347 345 344 344
358 358 361 360 359 358 361 361 361 360 358 352 342 351 354 356 357 354 353 351 349 351 352 352 353 354 355 354 352 349 348 348 349 349 350 352 352 351 350 349 347 346 345
357 358 360 359 357 359 361 359 358 358 358 356 355 356 356 357 358 356 356 355 355 356 356 357 356 354 349 350 352 351 350 350 349 346 348 349 349 349 349 349 349 348 346
357 363 364 363 362 362 362 362 359 358 357 357 357 357 356 355 355 356 356 357 357 356 358 355 351 349 344 351 351 350 350 350 350 348 349 350 347 344 345 344 348 349 349
366 366 364 361 360 360 361 358 356 355 354 351 351 353 356 356 356 356 356 355 355 356 356 355 352 347 343 347 356 355 354 352 348 351 349 344 343 345 343 343 347 347 349
362 359 348 334 334 337 341 341 345 345 342 339 338 338 346 351 355 355 354 354 353 351 352 354 349 344 345 345 342 349 357 354 351 350 346 347 345 346 342 342 344 348 351
335 331 329 332 338 342 338 338 339 337 336 334 333 333 334 333 332 338 349 351 353 352 351 349 347 348 348 344 349 348 348 356 355 351 350 348 348 345 342 342 340 344 350
335 335 338 344 339 335 332 336 337 338 337 335 332 333 332 332 332 330 329 344 350 351 349 348 346 342 340 340 348 348 352 356 355 354 352 352 349 347 346 347 347 349 347
341 344 342 336 336 336 333 334 337 338 338 335 333 333 333 333 333 331 330 330 330 335 346 347 347 347 344 343 344 350 350 351 351 350 350 351 349 348 345 347 344 344 347
Wind_Speed
15 15 13 10 8 13 12 11 12 16 12 11 10 10 11 11 11 18 19 16 12 14 13 11 10 10 10 9 10 10 10 11 11 11 12 13 13 15 14 15 11 12 13
11 13 13 14 13 12 7 12 10 11 10 13 13 12 13 12 14 15 17 22 19 18 17 15 12 11 12 13 12 11 11 11 12 12 13 14 14 15 15 15 14 13 13
7 8 5 15 12 10 7 9 12 12 14 12 13 15 15 16 16 16 12 15 19 21 20 20 15 13 13 16 13 12 11 12 13 14 14 15 15 16 17 16 17 16 14
11 9 7 12 11 10 9 9 14 15 14 15 15 17 18 16 16 20 23 12 19 20 24 24 21 17 16 15 16 15 12 13 13 13 15 15 16 16 16 17 17 17 17
11 7 10 11 11 11 12 14 13 15 13 13 14 18 19 20 15 21 27 31 21 24 23 23 27 27 25 20 17 17 15 15 15 14 13 14 16 17 17 17 17 17 17
7 9 7 11 14 13 11 15 11 10 15 15 16 20 19 20 23 22 18 19 22 29 28 27 25 29 28 28 30 20 21 20 17 17 16 14 14 17 17 18 18 18 18
13 13 9 9 10 13 13 11 12 11 15 17 15 20 19 17 23 27 22 21 22 29 30 30 28 29 29 28 29 33 28 24 24 22 20 16 14 15 18 18 19 19 19
15 16 14 12 11 13 12 14 15 13 15 14 12 11 3 5 10 16 25 26 24 28 32 32 32 31 29 30 30 29 31 31 30 27 27 25 21 17 17 19 19 20 21
17 15 14 14 14 13 15 14 17 16 17 17 14 6 2 3 5 7 20 27 29 32 30 32 34 32 31 32 28 29 31 33 35 30 27 27 25 24 19 18 19 20 21
19 17 12 16 16 17 17 16 14 17 18 20 21 17 12 8 3 4 4 22 25 27 29 33 33 34 34 29 29 29 29 33 33 32 28 30 25 25 24 20 19 20 21
23 17 17 17 19 18 17 16 15 16 17 20 20 19 17 16 12 9 5 8 11 23 26 23 30 33 35 31 27 28 30 31 33 33 34 27 32 27 26 27 22 21 21
18 21 22 20 20 20 20 17 17 18 19 20 20 20 20 14 9 7 3 8 12 19 18 20 19 23 29 24 22 32 34 35 35 30 33 33 29 34 29 27 28 25 23
15 20 27 24 22 23 21 20 21 21 21 22 23 22 20 20 20 16 12 7 5 8 13 15 17 15 20 28 30 31 29 30 35 32 30 34 35 31 33 31 29 28 24
15 4 6 20 21 20 20 18 19 21 21 22 22 20 19 19 18 15 9 7 3 3 7 21 16 10 13 15 18 37 32 30 26 27 28 30 32 34 32 35 32 30 29
18 14 11 12 15 13 16 19 20 21 22 22 21 17 15 14 13 13 9 9 6 1 3 5 4 2 5 6 29 28 19 30 24 24 28 30 30 29 34 34 37 35 32
14 13 9 9 14 17 19 18 19 19 17 19 46 23 14 12 13 12 9 9 9 7 3 4 5 12 10 7 11 19 22 18 20 21 18 24 29 31 31 35 37 38 39
18 18 17 16 17 19 18 19 20 21 10 10 11 20 23 16 15 12 12 12 12 14 9 13 15 14 19 15 8 11 15 15 17 17 18 21 24 29 33 33 37 38 38
18 17 14 16 18 18 18 19 20 17 13 13 14 19 24 18 18 15 14 14 15 16 19 16 19 18 20 18 17 18 18 17 21 20 18 21 23 26 29 32 33 37 38
18 17 16 16 14 16 15 18 19 19 18 18 19 24 29 23 21 18 18 18 18 18 22 22 18 17 20 16 17 17 15 22 25 21 22 19 18 24 27 31 33 32 35
18 18 14 11 13 15 16 15 15 17 18 19 20 22 23 23 23 22 22 19 19 21 22 23 23 20 18 20 18 18 21 25 26 22 22 21 21 23 26 28 32 33 31
4 4 6 8 8 8 10 10 12 14 16 17 19 19 21 22 23 24 24 24 22 22 21 20 21 24 22 16 14 20 20 22 22 19 21 24 24 25 28 26 29 33 32
5 5 4 3 4 7 9 13 14 14 14 15 17 19 19 20 22 24 24 23 25 26 27 23 22 19 23 18 11 14 17 17 5 18 22 26 26 28 28 27 24 22 27
7 4 3 5 9 12 15 16 15 14 16 19 19 19 22 22 22 22 23 20 20 19 25 26 25 25 25 23 22 19 17 17 20 15 12 21 17 24 25 23 21 19 21
4 3 5 7 7 11 15 18 20 22 21 21 21 19 19 21 23 26 28 25 22 21 21 24 27 27 25 26 26 24 24 21 24 25 18 18 22 25 23 25 25 21 20
3 4 5 7 11 17 16 18 20 22 21 20 17 18 18 17 13 19 19 20 25 26 23 18 20 24 26 25 26 25 23 20 13 19 16 21 23 22 21 21 20 20 20
4 6 7 12 14 18 19 22 22 22 22 22 18 16 14 17 15 15 17 19 22 20 16 14 18 21 23 24 23 24 31 19 16 5 19 19 21 13 4 18 22 22 18
Wind_Direction
190 209 209 194 219 211 223 208 233 237 232 229 222 237 248 245 237 232 227 231 222 239 220 200 203 192 188 191 198 195 204 207 208 204 199 194 197 195 195 191 193 184 187
204 198 211 205 206 222 260 230 206 224 241 232 240 248 246 245 248 227 237 236 241 236 232 220 211 199 192 199 199 195 199 212 212 213 208 203 201 200 198 197 197 192 201
187 168 183 212 214 217 231 241 227 239 246 244 259 261 262 259 251 240 236 237 242 237 237 229 214 209 203 209 198 199 202 209 218 217 213 210 207 206 206 200 199 201 198
203 218 189 199 214 219 248 250 226 252 246 251 269 270 272 270 258 253 237 254 241 236 236 227 217 213 213 219 217 214 211 210 213 219 218 217 215 211 208 204 204 202 206
206 211 217 225 235 245 262 243 243 262 258 267 265 272 270 262 249 248 252 257 262 235 236 232 227 229 227 223 219 222 222 221 213 213 215 220 217 216 213 209 205 205 207
213 217 229 239 242 257 262 251 249 254 268 277 279 278 272 265 249 245 248 252 245 235 235 234 230 233 233 230 230 224 227 223 223 221 214 213 218 218 216 211 209 208 209
221 228 234 248 249 254 268 267 261 260 263 269 268 272 285 289 254 241 243 250 243 236 236 234 235 233 233 234 234 234 229 227 226 224 220 218 218 217 216 219 214 211 210
218 226 230 239 250 262 264 264 266 271 272 270 254 245 306 297 246 245 241 243 237 230 237 238 233 235 236 235 236 238 231 226 226 226 228 229 226 219 217 216 218 218 214
223 226 228 236 248 248 257 264 267 262 272 288 284 272 350 270 334 257 239 232 234 223 231 234 234 238 240 242 240 238 234 232 232 226 223 226 224 222 221 218 219 219 218
223 232 235 238 242 242 256 261 269 263 263 275 290 297 278 260 233 313 296 227 236 233 230 230 237 238 242 241 242 239 240 236 232 231 230 228 227 224 223 220 222 221 218
226 240 236 239 241 245 255 263 260 270 269 274 277 291 293 290 259 226 268 269 254 244 245 255 242 239 243 242 245 244 241 238 237 232 238 232 224 223 223 226 228 224 220
222 235 236 241 245 250 258 263 266 272 274 275 278 277 279 276 276 257 248 277 275 287 262 259 248 255 242 245 262 259 260 246 242 238 234 236 233 224 222 220 224 226 221
253 259 245 238 240 247 255 258 264 269 273 274 278 282 284 285 289 295 288 286 248 285 275 278 265 249 242 245 246 258 260 251 243 242 239 235 234 230 223 219 219 219 218
271 325 247 233 242 249 250 264 270 272 273 281 281 276 282 290 289 293 279 224 289 213 296 269 278 252 268 236 283 260 260 251 246 244 241 238 234 230 226 222 223 222 223
252 271 269 238 243 251 265 275 278 281 284 287 289 277 282 296 306 303 285 242 166 212 271 274 264 315 11 282 286 292 275 257 246 251 245 239 237 234 229 226 227 226 225
249 248 257 260 275 287 294 287 286 283 294 344 334 292 278 283 297 295 275 254 251 222 264 255 270 315 309 301 250 257 271 258 254 252 248 239 236 233 233 231 229 228 229
241 254 270 279 283 294 296 287 284 282 312 16 14 276 282 278 275 278 270 269 263 243 233 274 272 282 289 286 305 245 243 242 254 252 246 238 233 232 231 231 231 230 230
249 253 263 264 280 288 290 288 289 292 282 266 245 265 281 272 262 266 266 265 264 268 259 262 273 273 288 289 298 265 277 263 255 255 250 245 238 233 234 233 230 230 232
248 246 247 259 274 293 285 288 288 290 282 266 271 264 268 275 269 263 254 261 267 269 271 262 273 280 291 285 278 265 238 256 246 249 255 253 245 238 237 239 237 234 235
246 251 245 266 280 285 291 292 290 288 285 283 279 274 276 273 270 275 262 258 266 264 273 274 274 286 298 302 264 247 248 245 242 240 246 252 258 249 240 241 240 238 236
195 218 258 276 290 298 302 300 303 298 294 287 285 285 288 287 281 275 272 272 263 261 257 268 275 283 290 286 254 270 263 268 267 252 246 249 250 250 249 248 245 244 242
177 163 120 40 324 312 306 312 314 310 312 311 309 305 300 292 282 284 281 275 271 265 259 257 265 267 278 276 272 267 271 260 268 258 251 251 252 253 254 261 263 259 258
172 195 261 296 304 307 311 311 306 306 310 314 314 309 308 312 300 290 287 284 279 274 264 261 262 265 274 278 274 275 271 251 246 251 233 254 256 249 258 264 269 267 266
172 235 283 283 278 288 300 300 302 304 305 309 311 308 307 314 319 313 298 289 283 287 275 262 260 270 278 288 280 276 273 274 276 260 239 256 260 257 262 254 262 260 260
222 272 282 293 303 303 309 302 300 296 296 302 312 315 318 326 338 336 342 325 296 286 290 278 265 270 282 291 289 277 266 250 255 262 255 241 258 257 259 258 250 246 249
256 262 269 301 312 310 312 305 298 286 285 288 293 296 303 320 321 328 340 340 333 321 313 294 275 273 280 285 286 280 261 251 236 268 268 222 246 238 251 245 247 245 238